This is the latest recevied weather packets stored in our database for station/object F6HFY-10. If no packets are shown the sender has not sent any weather packets the latest 10 day(s).
| Time | Temp. | Humidity | Pressure | Rain* | Wind** | Luminosity | Snow |
|---|---|---|---|---|---|---|---|
| 1777674269 | 22.22° C | 65% | 1019.9 hPa | - | - | - | - |
| 1777672468 | 22.22° C | 65% | 1020.2 hPa | - | - | - | - |
| 1777670668 | 22.78° C | 65% | 1020.4 hPa | - | - | - | - |
| 1777668868 | 22.78° C | 65% | 1020.5 hPa | - | - | - | - |
| 1777667068 | 22.78° C | 65% | 1020.3 hPa | - | - | - | - |
| 1777665267 | 22.78° C | 63% | 1020.1 hPa | - | - | - | - |
| 1777663467 | 22.78° C | 64% | 1020.2 hPa | - | - | - | - |
| 1777661667 | 22.78° C | 64% | 1020 hPa | - | - | - | - |
| 1777659867 | 22.78° C | 64% | 1019.9 hPa | - | - | - | - |
| 1777658067 | 22.78° C | 64% | 1020.1 hPa | - | - | - | - |
| 1777656266 | 22.78° C | 64% | 1019.8 hPa | - | - | - | - |
| 1777654468 | 22.78° C | 64% | 1019.6 hPa | - | - | - | - |
| 1777652668 | 22.78° C | 64% | 1019.7 hPa | - | - | - | - |
| 1777650868 | 23.33° C | 65% | 1020 hPa | - | - | - | - |
| 1777649068 | 22.78° C | 62% | 1020 hPa | - | - | - | - |
| 1777647268 | 22.78° C | 65% | 1020.3 hPa | - | - | - | - |
| 1777645468 | 22.78° C | 65% | 1020.6 hPa | - | - | - | - |
| 1777643667 | 22.22° C | 65% | 1020.9 hPa | - | - | - | - |
| 1777641867 | 22.22° C | 65% | 1021.1 hPa | - | - | - | - |
| 1777640067 | 21.67° C | 65% | 1021.2 hPa | - | - | - | - |
| 1777638267 | 21.67° C | 64% | 1021.2 hPa | - | - | - | - |
| 1777636466 | 21.67° C | 65% | 1021.5 hPa | - | - | - | - |
| 1777634666 | 21.11° C | 65% | 1021.8 hPa | - | - | - | - |
| 1777632866 | 21.11° C | 65% | 1022.1 hPa | - | - | - | - |
| 1777631066 | 21.11° C | 65% | 1022.2 hPa | - | - | - | - |
* Rain since midnight (hover to see other rain measurements)
** Current wind speed in m/s (hover to see current wind gust speed)